| time (UTC) | temp C | wind direction | speed KPH | gust KPH | rain 1hr cm | rain 24hr cm | rain mn cm | humidity % | barometer mb |
| 20260507065923 | 6 | 208 | 0.0 | 1.6 | 0.00 | 0.00 | 0.00 | 91 | 1011.9 |
| 20260507064416 | 6 | 179 | 0.0 | 0.0 | 0.00 | 0.00 | 0.00 | 91 | 1012.0 |
| 20260507062925 | 5 | 179 | 0.0 | 1.6 | 0.00 | 0.00 | 0.00 | 92 | 1012.1 |
| 20260507061437 | 4 | 186 | 0.0 | 0.0 | 0.00 | 0.00 | 0.00 | 93 | 1012.1 |
| 20260507055926 | 4 | 186 | 0.0 | 0.0 | 0.00 | 0.00 | 0.00 | 93 | 1012.0 |
| 20260507054418 | 4 | 186 | 0.0 | 1.6 | 0.00 | 0.00 | 0.00 | 93 | 1011.9 |
| 20260507052930 | 4 | 195 | 0.0 | 1.6 | 0.00 | 0.00 | 0.00 | 93 | 1011.9 |
| 20260507051422 | 3 | 195 | 0.0 | 0.0 | 0.00 | 0.00 | 0.00 | 93 | 1012.0 |
| 20260507045933 | 3 | 195 | 0.0 | 0.0 | 0.00 | 0.00 | 0.00 | 93 | 1012.0 |
| 20260507044424 | 3 | 195 | 0.0 | 0.0 | 0.00 | 0.00 | 0.00 | 92 | 1012.0 |
| 20260507042920 | 3 | 195 | 0.0 | 0.0 | 0.00 | 0.00 | 0.00 | 93 | 1011.9 |
| 20260507041432 | 3 | 195 | 0.0 | 0.0 | 0.00 | 0.00 | 0.00 | 92 | 1012.1 |
| 20260507035924 | 3 | 195 | 0.0 | 1.6 | 0.00 | 0.00 | 0.00 | 92 | 1012.2 |
| 20260507034435 | 3 | 257 | 0.0 | 1.6 | 0.00 | 0.00 | 0.00 | 92 | 1012.2 |
| 20260507032927 | 3 | 212 | 0.0 | 1.6 | 0.00 | 0.00 | 0.00 | 93 | 1012.2 |
| 20260507031418 | 3 | 212 | 0.0 | 0.0 | 0.00 | 0.00 | 0.00 | 92 | 1012.3 |
| 20260507025930 | 3 | 212 | 0.0 | 0.0 | 0.00 | 0.00 | 0.00 | 93 | 1012.2 |
| 20260507024420 | 3 | 214 | 0.0 | 3.2 | 0.00 | 0.00 | 0.00 | 92 | 1012.4 |
| 20260507022932 | 3 | 219 | 0.0 | 0.0 | 0.00 | 0.00 | 0.00 | 92 | 1012.3 |
| 20260507021424 | 3 | 219 | 0.0 | 0.0 | 0.00 | 0.00 | 0.00 | 92 | 1012.5 |
| 20260507015916 | 3 | 218 | 0.0 | 0.0 | 0.00 | 0.00 | 0.00 | 92 | 1012.4 |
| 20260507014428 | 3 | 218 | 0.0 | 1.6 | 0.00 | 0.00 | 0.00 | 92 | 1012.5 |
| 20260507012920 | 3 | 222 | 0.0 | 0.0 | 0.00 | 0.00 | 0.00 | 92 | 1012.5 |
| 20260507011430 | 2 | 222 | 0.0 | 0.0 | 0.00 | 0.00 | 0.00 | 91 | 1012.6 |
| 20260507005922 | 3 | 217 | 0.0 | 1.6 | 0.00 | 0.00 | 0.00 | 89 | 1012.6 |
| 20260507004434 | 5 | 217 | 0.0 | 1.6 | 0.00 | 0.00 | 0.00 | 85 | 1012.5 |
| 20260507002926 | 5 | 37 | 1.6 | 3.2 | 0.00 | 0.00 | 0.00 | 90 | 1012.3 |
| 20260507001418 | 5 | 212 | 0.0 | 0.0 | 0.00 | 0.00 | 0.00 | 88 | 1012.6 |
| 20260506235930 | 5 | 212 | 0.0 | 1.6 | 0.00 | 0.00 | 0.00 | 84 | 1012.6 |
| 20260506234417 | 6 | 41 | 0.0 | 1.6 | 0.00 | 0.00 | 0.00 | 85 | 1012.7 |
| 20260506232929 | 7 | 108 | 0.0 | 3.2 | 0.00 | 0.00 | 0.00 | 84 | 1012.8 |
| 20260506231421 | 7 | 99 | 0.0 | 3.2 | 0.00 | 0.00 | 0.00 | 84 | 1012.7 |
| 20260506225933 | 7 | 89 | 0.0 | 1.6 | 0.00 | 0.00 | 0.00 | 83 | 1012.8 |
| 20260506224425 | 7 | 90 | 0.0 | 0.0 | 0.00 | 0.00 | 0.00 | 82 | 1012.7 |
| 20260506222955 | 7 | 58 | 1.6 | 9.7 | 0.00 | 0.00 | 0.00 | 81 | 1012.7 |
| 20260506221425 | 8 | 43 | 1.6 | 9.7 | 0.00 | 0.00 | 0.00 | 81 | 1012.8 |
| 20260506215917 | 8 | 27 | 1.6 | 11.3 | 0.00 | 0.00 | 0.00 | 80 | 1012.8 |
| 20260506214429 | 8 | 41 | 1.6 | 14.5 | 0.00 | 0.00 | 0.00 | 79 | 1012.8 |
| 20260506212922 | 8 | 51 | 3.2 | 11.3 | 0.00 | 0.00 | 0.00 | 78 | 1012.8 |
| 20260506211434 | 9 | 86 | 1.6 | 9.7 | 0.00 | 0.00 | 0.00 | 77 | 1012.9 |
| 20260506205925 | 9 | 143 | 4.8 | 12.9 | 0.00 | 0.00 | 0.00 | 76 | 1012.8 |
| 20260506204438 | 10 | 57 | 3.2 | 12.9 | 0.00 | 0.00 | 0.00 | 75 | 1012.7 |
| 20260506202929 | 10 | 121 | 3.2 | 12.9 | 0.00 | 0.00 | 0.00 | 74 | 1012.6 |
| 20260506201425 | 10 | 68 | 3.2 | 9.7 | 0.00 | 0.00 | 0.00 | 73 | 1012.5 |
| 20260506195916 | 10 | 51 | 3.2 | 9.7 | 0.00 | 0.00 | 0.00 | 72 | 1012.4 |
| 20260506194435 | 10 | 91 | 1.6 | 9.7 | 0.00 | 0.00 | 0.00 | 72 | 1012.2 |
| 20260506192927 | 10 | 52 | 1.6 | 14.5 | 0.00 | 0.00 | 0.00 | 71 | 1012.1 |
| 20260506191419 | 11 | 52 | 0.0 | 9.7 | 0.00 | 0.00 | 0.00 | 70 | 1011.9 |
| 20260506185932 | 11 | 356 | 3.2 | 12.9 | 0.00 | 0.00 | 0.00 | 69 | 1011.7 |
| 20260506184423 | 11 | 58 | 1.6 | 11.3 | 0.00 | 0.00 | 0.00 | 68 | 1011.7 |
| 20260506182934 | 12 | 107 | 6.4 | 12.9 | 0.00 | 0.00 | 0.00 | 65 | 1011.7 |
| 20260506181426 | 12 | 60 | 4.8 | 11.3 | 0.00 | 0.00 | 0.00 | 62 | 1011.6 |
| 20260506175956 | 13 | 142 | 0.0 | 3.2 | 0.00 | 0.00 | 0.00 | 59 | 1011.6 |
| 20260506174427 | 13 | 143 | 0.0 | 1.6 | 0.00 | 0.00 | 0.00 | 60 | 1011.7 |
| 20260506172918 | 14 | 139 | 0.0 | 0.0 | 0.00 | 0.00 | 0.00 | 58 | 1011.7 |
| 20260506171447 | 14 | 138 | 0.0 | 1.6 | 0.00 | 0.00 | 0.00 | 55 | 1011.7 |
| 20260506165956 | 15 | 141 | 0.0 | 0.0 | 0.00 | 0.00 | 0.00 | 54 | 1011.7 |
| 20260506164426 | 15 | 122 | 0.0 | 0.0 | 0.00 | 0.00 | 0.00 | 53 | 1011.7 |
| 20260506162917 | 14 | 143 | 0.0 | 3.2 | 0.00 | 0.00 | 0.00 | 51 | 1011.7 |
| 20260506161428 | 15 | 199 | 0.0 | 1.6 | 0.00 | 0.00 | 0.00 | 51 | 1011.7 |
| 20260506155920 | 15 | 198 | 0.0 | 1.6 | 0.00 | 0.00 | 0.00 | 48 | 1011.8 |
| 20260506154431 | 15 | 211 | 3.2 | 11.3 | 0.00 | 0.00 | 0.00 | 47 | 1011.8 |
| 20260506152921 | 15 | 231 | 0.0 | 3.2 | 0.00 | 0.00 | 0.00 | 47 | 1011.9 |
| 20260506151432 | 15 | 222 | 1.6 | 9.7 | 0.00 | 0.00 | 0.00 | 45 | 1012.1 |
| 20260506145925 | 15 | 248 | 1.6 | 6.4 | 0.00 | 0.00 | 0.00 | 47 | 1012.2 |
| 20260506144416 | 14 | 240 | 0.0 | 4.8 | 0.00 | 0.00 | 0.00 | 48 | 1012.2 |
| 20260506142927 | 14 | 238 | 1.6 | 9.7 | 0.00 | 0.00 | 0.00 | 49 | 1012.4 |
| 20260506141417 | 16 | 211 | 3.2 | 6.4 | 0.00 | 0.00 | 0.00 | 45 | 1012.5 |
| 20260506135929 | 16 | 221 | 4.8 | 11.3 | 0.00 | 0.20 | 0.00 | 43 | 1012.5 |
| 20260506134421 | 16 | 208 | 1.6 | 8.0 | 0.00 | 0.20 | 0.00 | 46 | 1012.8 |
| 20260506132951 | 16 | 187 | 4.8 | 9.7 | 0.00 | 0.20 | 0.00 | 42 | 1012.8 |
| 20260506131420 | 16 | 134 | 0.0 | 8.0 | 0.00 | 0.20 | 0.00 | 48 | 1012.9 |
| 20260506125932 | 16 | 333 | 0.0 | 4.8 | 0.00 | 0.20 | 0.00 | 39 | 1012.9 |
| 20260506124422 | 16 | 110 | 0.0 | 3.2 | 0.00 | 0.20 | 0.00 | 45 | 1013.2 |
| 20260506122933 | 15 | 34 | 1.6 | 3.2 | 0.00 | 0.20 | 0.00 | 46 | 1013.3 |
| 20260506121425 | 15 | 229 | 1.6 | 9.7 | 0.00 | 0.20 | 0.00 | 52 | 1013.4 |
| 20260506115916 | 14 | 46 | 0.0 | 3.2 | 0.00 | 0.20 | 0.00 | 50 | 1013.6 |
| 20260506114429 | 13 | 276 | 0.0 | 3.2 | 0.00 | 0.20 | 0.00 | 53 | 1013.7 |
| 20260506112925 | 12 | 18 | 0.0 | 6.4 | 0.00 | 0.20 | 0.00 | 54 | 1013.8 |
| 20260506111417 | 12 | 122 | 1.6 | 4.8 | 0.00 | 0.20 | 0.00 | 54 | 1013.9 |
| 20260506105928 | 12 | 58 | 1.6 | 3.2 | 0.00 | 0.20 | 0.00 | 54 | 1014.0 |
| 20260506104421 | 12 | 135 | 1.6 | 8.0 | 0.00 | 0.20 | 0.00 | 57 | 1014.0 |
| 20260506102933 | 12 | 148 | 1.6 | 9.7 | 0.00 | 0.20 | 0.00 | 56 | 1014.1 |
| 20260506101425 | 11 | 163 | 1.6 | 6.4 | 0.00 | 0.20 | 0.00 | 59 | 1014.1 |
| 20260506095916 | 12 | 30 | 1.6 | 8.0 | 0.00 | 0.41 | 0.00 | 60 | 1014.2 |
| 20260506094429 | 11 | 56 | 1.6 | 9.7 | 0.00 | 0.41 | 0.00 | 60 | 1014.1 |
| 20260506092919 | 11 | 47 | 1.6 | 11.3 | 0.00 | 0.41 | 0.00 | 62 | 1014.2 |
| 20260506091451 | 11 | 56 | 1.6 | 9.7 | 0.00 | 0.41 | 0.00 | 64 | 1014.2 |
| 20260506085942 | 10 | 43 | 1.6 | 8.0 | 0.00 | 0.41 | 0.00 | 64 | 1014.1 |
| 20260506084433 | 9 | 84 | 0.0 | 9.7 | 0.00 | 0.41 | 0.00 | 67 | 1014.1 |
| 20260506082925 | 8 | 52 | 0.0 | 4.8 | 0.00 | 0.41 | 0.00 | 70 | 1014.1 |
| 20260506081417 | 8 | 339 | 0.0 | 1.6 | 0.00 | 0.41 | 0.00 | 76 | 1014.2 |
| 20260506072933 | 5 | 245 | 0.0 | 0.0 | 0.00 | 0.41 | 0.00 | 90 | 1014.3 |
| 20260506071422 | 4 | 245 | 0.0 | 1.6 | 0.00 | 0.41 | 0.00 | 90 | 1014.3 |